Weather in Permskoye

Russia / Primorsky Krai     43°46′01″N   135°10′30″E
temp.,
°C
wind,
m/s
gust,
m/s
humid.,
%
clouds,
%
prec.,
mm/h
press.,
hPa
HPBL,
m
17 may, mon
mon1701:00+13nw2264100 0.0 100241
04:00+12nw3365100 0.0 100246
07:00+12nw336780 0.0 100387
10:00+20nw243911 0.0 10031176
13:00+23sse133117 0.0 10031194
16:00+21s3435100 0.0 1003721
19:00+17ssw3654100 0.0 1004114
22:00+13wnw2160100 0.0 100512
18 may, tue
tue1801:00+12nw22622 0.0 100622
04:00+11wnw22580 0.0 100728
07:00+13nw22560 0.0 100749
10:00+22ssw12334 0.0 1007443
13:00+23s47322 0.0 1006727
16:00+23ssw510375 0.0 1005600
19:00+18ssw41155100 0.0 1005279
22:00+13sw2369100 0.0 100746
19 may, wed
wed1901:00+11wsw227599 0.0 100720
04:00+10w227757 0.0 100714
07:00+12w126933 0.0 100856
10:00+19s23506 0.0 1008321
13:00+21sse44472 0.0 1007394
16:00+20s46547 0.3 1006326
19:00+15s35742 0.0 1007141
22:00+12sw228420 0.0 100937
20 may, thu
thu2001:00+11wsw118669 0.0 100914
04:00+11w118742 0.0 100915
07:00+14w1171100 0.0 101034
10:00+22sse214599 0.0 1010237
13:00+22sse3547100 0.0 1010425
16:00+21s4751100 0.0 1008328
19:00+16s237774 0.3 100987
22:00+12ssw2288100 0.4 101032
21 may, fri
fri2101:00+12wsw1188100 0.0 100912
04:00+11wsw1193100 0.0 100812
07:00+14wnw1186100 0.0 100832
10:00+21se1152100 0.0 1007401
13:00+20sse2346100 0.0 1006374
16:00+20sse2346100 0.0 1005301
19:00+15se1167100 0.0 100772
22:00+11n1180100 0.0 100813